This demonstration page uses our WeatherBlox Daily Observations layout. Learn more.

Left ArrowRight Arrow

39.95238, -75.16362

Hourly Observations for April 23, 2022

Temp ( °F °C ) Dew Point ( °F °C ) Humidity (%) Winds ( mph kmh ) Pressure ( in mb ) Visibility ( mi km ) Precip ( " mm )
12:54 am 00:54 Mostly Cloudy 53 11.7 35 1.7 51 51 NNE 3 6 30.40 1029 10 16 0.00 0.00
1:54 am 01:54 Mostly Cloudy 52 11.1 34 1.1 50 50 NE 5 7 30.40 1029 10 16 0.00 0.00
2:54 am 02:54 Mostly Cloudy 53 11.7 35 1.7 51 51 NNE 6 9 30.38 1029 10 16 0.00 0.00
3:54 am 03:54 Mostly Cloudy 53 11.7 35 1.7 51 51 ENE 5 7 30.37 1029 10 16 0.00 0.00
4:54 am 04:54 Mostly Cloudy 53 11.7 35 1.7 51 51 ENE 6 9 30.38 1029 10 16 0.00 0.00
5:54 am 05:54 Mostly Cloudy 53 11.7 35 1.7 51 51 ENE 7 11 30.40 1029 10 16 0.00 0.00
6:54 am 06:54 Mostly Cloudy 53 11.7 35 1.7 51 51 ESE 5 7 30.42 1030 10 16 0.00 0.00
7:54 am 07:54 Mostly Cloudy 53 11.7 35 1.7 51 51 ENE 6 9 30.42 1030 10 16 0.00 0.00
8:54 am 08:54 Mostly Cloudy 55 12.8 35 1.7 47 47 ENE 7 11 30.43 1030 10 16 0.00 0.00
9:54 am 09:54 Mostly Cloudy 56 13.3 35 1.7 46 46 E 8 13 30.42 1030 10 16 0.00 0.00
10:54 am 10:54 Mostly Cloudy 58 14.4 35 1.7 42 42 E 9 15 30.40 1029 10 16 0.00 0.00
11:54 am 11:54 Mostly Cloudy 60 15.6 37 2.8 42 42 SE 8 13 30.38 1029 10 16 0.00 0.00
12:54 pm 12:54 Mostly Cloudy 61 16.1 36 2.2 39 39 ESE 6 9 30.35 1028 10 16 0.00 0.00
1:54 pm 13:54 Mostly Cloudy 62 16.7 37 2.8 40 40 S 9 15 30.33 1027 10 16 0.00 0.00
2:54 pm 14:54 Mostly Cloudy 62 16.7 36 2.2 38 38 S 9 15 30.29 1026 10 16 0.00 0.00
3:54 pm 15:54 Cloudy 62 16.7 36 2.2 38 38 SSW 8 13 30.26 1025 10 16 0.00 0.00
4:54 pm 16:54 Cloudy 62 16.7 37 2.8 40 40 SSE 9 15 30.24 1024 10 16 0.00 0.00
5:54 pm 17:54 Mostly Cloudy 62 16.7 39 3.9 43 43 S 8 13 30.22 1023 10 16 0.00 0.00
6:54 pm 18:54 Mostly Cloudy 62 16.7 40 4.4 44 44 SSE 8 13 30.23 1024 10 16 0.00 0.00
7:54 pm 19:54 Mostly Cloudy 62 16.7 41 5 46 46 S 8 13 30.23 1024 10 16 0.00 0.00
8:54 pm 20:54 Partly Cloudy 59 15 40 4.4 49 49 SSE 5 7 30.22 1023 10 16 0.00 0.00
9:54 pm 21:54 Mostly Clear 57 13.9 42 5.6 58 58 SSE 6 9 30.24 1024 10 16 0.00 0.00
10:54 pm 22:54 Partly Cloudy 55 12.8 41 5 59 59 SE 5 7 30.24 1024 10 16 0.00 0.00
11:54 pm 23:54 Mostly Cloudy 54 12.2 39 3.9 57 57 SE 6 9 30.23 1024 10 16 0.00 0.00

Powered by AerisWeather